H1 CPF 2 NER 2021 6 18 9 169 01 glonass142 H2 2001801 9142 45358 2021 6 18 0 0 0 2021 6 21 23 45 0 900 1 1 0 0 0 1 H9 10 0 59383 0.00000 0 2591186.274 -22846278.490 11040699.886 10 0 59383 900.00000 0 2808106.191 -24016682.809 8112037.479 10 0 59383 1800.00000 0 2851415.629 -24840168.320 5025726.347 10 0 59383 2700.00000 0 2768171.867 -25284433.542 1841727.682 10 0 59383 3600.00000 0 2610790.258 -25329470.952 -1378074.537 10 0 59383 4500.00000 0 2434578.567 -24968418.845 -4571080.341 10 0 59383 5400.00000 0 2295149.566 -24207880.242 -7675196.209 10 0 59383 6300.00000 0 2245822.352 -23067694.591 -10630048.692 10 0 59383 7200.00000 0 2335123.480 -21580171.457 -13378164.691 10 0 59383 8100.00000 0 2604494.823 -19788818.123 -15866094.773 10 0 59383 9000.00000 0 3086306.263 -17746614.428 -18045457.067 10 0 59383 9900.00000 0 3802258.257 -15513907.325 -19873880.979 10 0 59383 10800.00000 0 4762242.775 -13156013.483 -21315832.271 10 0 59383 11700.00000 0 5963711.552 -10740630.365 -22343303.522 10 0 59383 12600.00000 0 7391579.094 -8335164.110 -22936356.745 10 0 59383 13500.00000 0 9018665.303 -6004085.627 -23083508.042 10 0 59383 14400.00000 0 10806659.844 -3806424.860 -22781947.220 10 0 59383 15300.00000 0 12707568.406 -1793507.217 -22037588.485 10 0 59383 16200.00000 0 14665580.828 -7025.639 -20864951.592 10 0 59383 17100.00000 0 16619283.404 1522472.356 -19286875.960 10 0 59383 18000.00000 0 18504123.089 2776620.762 -17334073.439 10 0 59383 18900.00000 0 20255020.865 3749752.501 -15044528.484 10 0 59383 19800.00000 0 21809025.120 4448878.140 -12462757.316 10 0 59383 20700.00000 0 23107894.077 4893128.332 -9638940.556 10 0 59383 21600.00000 0 24100499.290 5112685.061 -6627946.148 10 0 59383 22500.00000 0 24744949.558 5147248.115 -3488261.661 10 0 59383 23400.00000 0 25010346.300 5044102.720 -280856.939 10 0 59383 24300.00000 0 24878096.935 4855871.021 2932000.617 10 0 59383 25200.00000 0 24342731.299 4638043.294 6087954.899 10 0 59383 26100.00000 0 23412187.026 4446393.884 9125770.311 10 0 59383 27000.00000 0 22107552.110 4334391.595 11986517.808 10 0 59383 27900.00000 0 20462275.512 4350714.290 14614714.790 10 0 59383 28800.00000 0 18520878.950 4536972.844 16959396.856 10 0 59383 29700.00000 0 16337223.588 4925740.661 18975101.048 10 0 59383 30600.00000 0 13972403.762 5538972.012 20622742.116 10 0 59383 31500.00000 0 11492355.166 6386876.038 21870365.368 10 0 59383 32400.00000 0 8965276.463 7467294.238 22693762.277 10 0 59383 33300.00000 0 6458970.790 8765608.298 23076937.520 10 0 59383 34200.00000 0 4038216.771 10255183.022 23012418.825 10 0 59383 35100.00000 0 1762277.259 11898327.002 22501403.912 10 0 59383 36000.00000 0 -317351.768 13647732.162 21553741.580 10 0 59383 36900.00000 0 -2158859.508 15448333.329 20187746.995 10 0 59383 37800.00000 0 -3731626.983 17239511.440 18429854.131 10 0 59383 38700.00000 0 -5017260.130 18957549.476 16314111.257 10 0 59383 39600.00000 0 -6010106.819 20538239.256 13881528.367 10 0 59383 40500.00000 0 -6717236.844 21919530.578 11179288.278 10 0 59383 41400.00000 0 -7157886.239 23044111.916 8259835.855 10 0 59383 42300.00000 0 -7362389.705 23861814.227 5179862.564 10 0 59383 43200.00000 0 -7370646.629 24331736.443 1999205.727 10 0 59383 44100.00000 0 -7230185.937 24424002.575 -1220316.120 10 0 59383 45000.00000 0 -6993912.185 24121075.583 -4416108.704 10 0 59383 45900.00000 0 -6717628.988 23418571.794 -7526024.350 10 0 59383 46800.00000 0 -6457445.492 22325540.645 -10489576.678 10 0 59383 47700.00000 0 -6267176.643 20864197.223 -13249123.144 10 0 59383 48600.00000 0 -6195848.336 19069118.230 -15750991.727 10 0 59383 49500.00000 0 -6285413.996 16985934.665 -17946529.242 10 0 59383 50400.00000 0 -6568780.094 14669575.892 -19793050.416 10 0 59383 51300.00000 0 -7068224.863 12182138.469 -21254669.147 10 0 59383 52200.00000 0 -7794277.717 9590468.832 -22302995.838 10 0 59383 53100.00000 0 -8745107.205 6963560.783 -22917687.440 10 0 59383 54000.00000 0 -9906443.884 4369876.184 -23086839.949 10 0 59383 54900.00000 0 -11252041.806 1874700.186 -22807216.107 10 0 59383 55800.00000 0 -12744659.680 -462359.268 -22084304.337 10 0 59383 56700.00000 0 -14337520.876 -2589624.321 -20932208.079 10 0 59383 57600.00000 0 -15976191.425 -4465259.618 -19373367.951 10 0 59383 58500.00000 0 -17600797.471 -6058765.681 -17438122.240 10 0 59383 59400.00000 0 -19148489.458 -7351992.368 -15164114.345 10 0 59383 60300.00000 0 -20556049.911 -8339631.636 -12595558.614 10 0 59383 61200.00000 0 -21762535.432 -9029170.518 -9782378.889 10 0 59383 62100.00000 0 -22711842.166 -9440308.002 -6779236.493 10 0 59383 63000.00000 0 -23355086.970 -9603861.867 -3644466.590 10 0 59383 63900.00000 0 -23652704.302 -9560212.933 -438943.816 10 0 59383 64800.00000 0 -23576170.656 -9357353.594 2775100.583 10 0 59383 65700.00000 0 -23109284.106 -9048624.056 5935286.939 10 0 59383 66600.00000 0 -22248945.162 -8690232.696 8980296.905 10 0 59383 67500.00000 0 -21005406.107 -8338665.889 11851061.168 10 0 59383 68400.00000 0 -19401978.230 -8048097.096 14491902.155 10 0 59383 69300.00000 0 -17474209.088 -7867904.776 16851609.630 10 0 59383 70200.00000 0 -15268563.892 -7840403.939 18884428.772 10 0 59383 71100.00000 0 -12840665.641 -7998886.964 20550942.124 10 0 59383 72000.00000 0 -10253166.861 -8366056.206 21818828.890 10 0 59383 72900.00000 0 -7573340.798 -8952914.456 22663487.605 10 0 59383 73800.00000 0 -4870491.283 -9758160.234 23068510.739 10 0 59383 74700.00000 0 -2213287.974 -10768113.777 23026002.462 10 0 59383 75600.00000 0 332863.579 -11957177.657 22536733.708 10 0 59383 76500.00000 0 2708308.955 -13288813.720 21610131.472 10 0 59383 77400.00000 0 4861386.730 -14716996.537 20264102.211 10 0 59383 78300.00000 0 6750333.046 -16188083.707 18524692.168 10 0 59383 79200.00000 0 8344770.518 -17643025.782 16425590.397 10 0 59383 80100.00000 0 9626720.113 -19019824.133 14007483.176 10 0 59383 81000.00000 0 10591094.391 -20256134.340 11317271.460 10 0 59383 81900.00000 0 11245652.027 -21291906.172 8407165.685 10 0 59383 82800.00000 0 11610415.933 -22071949.146 5333674.963 10 0 59383 83700.00000 0 11716579.965 -22548315.378 2156510.008 10 0 59383 84600.00000 0 11604950.805 -22682398.709 -1062578.964 10 0 59383 85500.00000 0 11323991.310 -22446660.704 -4261006.316 10 0 59384 0.00000 0 10927548.735 -21825909.831 -7376573.087 10 0 59384 900.00000 0 10472364.862 -20818078.336 -10348682.954 10 0 59384 1800.00000 0 10015473.693 -19434464.271 -13119526.642 10 0 59384 2700.00000 0 9611598.802 -17699425.594 -15635212.140 10 0 59384 3600.00000 0 9310660.148 -15649540.403 -17846817.367 10 0 59384 4500.00000 0 9155497.436 -13332266.700 -19711344.532 10 0 59384 5400.00000 0 9179906.548 -10804158.000 -21192557.526 10 0 59384 6300.00000 0 9407072.599 -8128708.912 -22261686.069 10 0 59384 7200.00000 0 9848466.105 -5373920.551 -22897983.155 10 0 59384 8100.00000 0 10503249.081 -2609687.042 -23089125.341 10 0 59384 9000.00000 0 11358216.296 94888.408 -22831448.561 10 0 59384 9900.00000 0 12388274.275 2674136.498 -22130015.284 10 0 59384 10800.00000 0 13557438.049 5068314.619 -20998512.073 10 0 59384 11700.00000 0 14820303.889 7225846.572 -19458979.787 10 0 59384 12600.00000 0 16123936.177 9105216.922 -17541381.816 10 0 59384 13500.00000 0 17410089.270 10676442.341 -15283018.784 10 0 59384 14400.00000 0 18617671.002 11922059.931 -12727801.055 10 0 59384 15300.00000 0 19685344.305 12837592.699 -9925393.212 10 0 59384 16200.00000 0 20554157.486 13431474.287 -6930247.120 10 0 59384 17100.00000 0 21170092.507 13724437.729 -3800542.407 10 0 59384 18000.00000 0 21486423.894 13748395.366 -597055.175 10 0 59384 18900.00000 0 21465788.907 13544858.493 2618022.917 10 0 59384 19800.00000 0 21081881.680 13162964.525 5782292.058 10 0 59384 20700.00000 0 20320699.931 12657195.821 8834354.417 10 0 59384 21600.00000 0 19181291.577 12084887.199 11715003.463 10 0 59384 22500.00000 0 17675969.608 11503627.737 14368369.393 10 0 59384 23400.00000 0 15829985.899 10968666.766 16742998.553 10 0 59384 24300.00000 0 13680677.081 10530433.421 18792846.320 10 0 59384 25200.00000 0 11276117.574 10232274.190 20478164.734 10 0 59384 26100.00000 0 8673335.263 10108503.531 21766268.231 10 0 59384 27000.00000 0 5936163.237 10182849.394 22632163.380 10 0 59384 27900.00000 0 3132815.871 10467358.909 23059031.024 10 0 59384 28800.00000 0 333288.896 10961810.332 23038551.941 10 0 59384 29700.00000 0 -2393309.845 11653656.248 22571070.008 10 0 59384 30600.00000 0 -4981389.425 12518501.008 21665589.669 10 0 59384 31500.00000 0 -7371356.581 13521093.126 20339607.445 10 0 59384 32400.00000 0 -9511846.274 14616791.935 18618780.171 10 0 59384 33300.00000 0 -11361610.249 15753447.927 16536435.565 10 0 59384 34200.00000 0 -12890985.622 16873618.690 14132933.725 10 0 59384 35100.00000 0 -14082882.902 17917028.043 11454891.010 10 0 59384 36000.00000 0 -14933252.630 18823165.394 8554280.500 10 0 59384 36900.00000 0 -15451011.427 19533915.963 5487425.943 10 0 59384 37800.00000 0 -15657431.016 19996110.786 2313908.401 10 0 59384 38700.00000 0 -15585016.293 20163888.361 -904593.236 10 0 59384 39600.00000 0 -15275920.235 20000767.413 -4105504.903 10 0 59384 40500.00000 0 -14779963.143 19481342.183 -7226579.287 10 0 59384 41400.00000 0 -14152340.614 18592527.493 -10207112.534 10 0 59384 42300.00000 0 -13451117.910 17334299.888 -12989131.157 10 0 59384 43200.00000 0 -12734617.515 15719902.429 -15518525.341 10 0 59384 44100.00000 0 -12058811.126 13775503.484 -17746105.965 10 0 59384 45000.00000 0 -11474827.008 11539322.999 -19628564.274 10 0 59384 45900.00000 0 -11026678.598 9060262.185 -21129315.380 10 0 59384 46800.00000 0 -10749310.597 6396093.365 -22219209.250 10 0 59384 47700.00000 0 -10667045.211 3611285.246 -22877095.535 10 0 59384 48600.00000 0 -10792494.039 774553.905 -23090231.673 10 0 59384 49500.00000 0 -11125981.385 -2043758.929 -22854526.790 10 0 59384 50400.00000 0 -11655503.062 -4774371.547 -22174617.056 10 0 59384 51300.00000 0 -12357222.219 -7351700.816 -21063771.458 10 0 59384 52200.00000 0 -13196481.118 -9716344.591 -19543630.029 10 0 59384 53100.00000 0 -14129286.048 -11817305.523 -17643779.821 10 0 59384 54000.00000 0 -15104202.771 -13613864.734 -15401176.914 10 0 59384 54900.00000 0 -16064582.513 -15077028.477 -12859425.629 10 0 59384 55800.00000 0 -16951024.674 -16190488.635 -10067928.999 10 0 59384 56700.00000 0 -17703972.354 -16951058.353 -7080926.970 10 0 59384 57600.00000 0 -18266331.190 -17368566.032 -3956441.064 10 0 59384 58500.00000 0 -18586000.932 -17465213.518 -755146.188 10 0 59384 59400.00000 0 -18618212.850 -17274426.877 2460808.292 10 0 59384 60300.00000 0 -18327574.236 -16839249.350 5629005.154 10 0 59384 61200.00000 0 -17689733.583 -16210345.195 8687969.832 10 0 59384 62100.00000 0 -16692596.050 -15443699.392 11578361.279 10 0 59384 63000.00000 0 -15337037.669 -14598110.700 14244120.084 10 0 59384 63900.00000 0 -13637087.863 -13732584.043 16633551.629 10 0 59384 64800.00000 0 -11619571.993 -12903732.119 18700323.714 10 0 59384 65700.00000 0 -9323228.113 -12163295.431 20404359.795 10 0 59384 66600.00000 0 -6797334.011 -11555884.813 21712611.118 10 0 59384 67500.00000 0 -4099900.664 -11117040.904 22599693.478 10 0 59384 68400.00000 0 -1295506.144 -10871691.736 23048376.895 10 0 59384 69300.00000 0 1547141.213 -10833072.931 23049919.184 10 0 59384 70200.00000 0 4357810.514 -11002155.674 22604237.242 10 0 59384 71100.00000 0 7067420.016 -11367606.607 21719912.713 10 0 59384 72000.00000 0 9610663.080 -11906281.658 20414031.636 10 0 59384 72900.00000 0 11928480.514 -12584233.568 18711860.581 10 0 59384 73800.00000 0 13970277.503 -13358191.499 16646364.782 10 0 59384 74700.00000 0 15695793.528 -14177451.176 14257576.670 10 0 59384 75600.00000 0 17076547.944 -14986096.662 11591826.174 10 0 59384 76500.00000 0 18096801.248 -15725460.642 8700846.811 10 0 59384 77400.00000 0 18753992.037 -16336719.637 5640774.406 10 0 59384 78300.00000 0 19058631.615 -16763514.498 2471057.495 10 0 59384 79200.00000 0 19033660.945 -16954485.042 -746699.466 10 0 59384 80100.00000 0 18713297.305 -16865610.937 -3949937.217 10 0 59384 81000.00000 0 18141419.746 -16462258.867 -7076363.286 10 0 59384 81900.00000 0 17369562.009 -15720848.245 -10065169.572 10 0 59384 82800.00000 0 16454598.327 -14630063.845 -12858221.342 10 0 59384 83700.00000 0 15456220.588 -13191562.870 -15401193.752 10 0 59384 84600.00000 0 14434314.108 -11420145.407 -17644633.174 10 0 59384 85500.00000 0 13446343.492 -9343380.033 -19544922.110 10 0 59385 0.00000 0 12544859.360 -7000699.371 -21065128.781 10 0 59385 900.00000 0 11775231.662 -4442002.280 -22175724.990 10 0 59385 1800.00000 0 11173704.315 -1725821.479 -22855158.198 10 0 59385 2700.00000 0 10765854.619 1082868.774 -23090267.482 10 0 59385 3600.00000 0 10565520.083 3915113.100 -22876535.526 10 0 59385 4500.00000 0 10574238.721 6700601.971 -22218172.173 10 0 59385 5400.00000 0 10781225.182 9370356.387 -21128028.400 10 0 59385 6300.00000 0 11163883.292 11859359.302 -19627342.604 10 0 59385 7200.00000 0 11688832.856 14109024.931 -17745324.309 10 0 59385 8100.00000 0 12313406.935 16069404.068 -15518583.466 10 0 59385 9000.00000 0 12987556.093 17701034.507 -12990416.384 10 0 59385 9900.00000 0 13656078.955 18976360.371 -10209962.188 10 0 59385 10800.00000 0 14261084.656 19880662.294 -7231246.186 10 0 59385 11700.00000 0 14744583.015 20412460.789 -4112128.740 10 0 59385 12600.00000 0 15051092.809 20583377.127 -913180.278 10 0 59385 13500.00000 0 15130157.803 20417458.875 2303495.572 10 0 59385 14400.00000 0 14938664.036 19949999.623 5475467.646 10 0 59385 15300.00000 0 14442860.315 19225903.546 8541188.028 10 0 59385 16200.00000 0 13619996.360 18297664.544 11441184.361 10 0 59385 17100.00000 0 12459509.174 17223045.577 14119210.561 10 0 59385 18000.00000 0 10963707.221 16062556.283 16523333.680 10 0 59385 18900.00000 0 9147923.026 14876835.058 18606936.225 10 0 59385 19800.00000 0 7040126.931 13724045.519 20329615.003 10 0 59385 20700.00000 0 4680017.258 12657396.396 21657959.620 10 0 59385 21600.00000 0 2117623.687 11722888.427 22566196.260 10 0 59385 22500.00000 0 -588519.270 10957382.231 23036684.882 10 0 59385 23400.00000 0 -3373553.970 10387067.605 23060260.652 10 0 59385 24300.00000 0 -6168747.348 10026397.933 22636413.344 10 0 59385 25200.00000 0 -8904104.375 9877534.064 21773301.164 10 0 59385 26100.00000 0 -11511040.027 9930320.855 20487598.520 10 0 59385 27000.00000 0 -13925000.005 10162797.460 18804180.082 10 0 59385 27900.00000 0 -16087922.292 10542220.168 16755646.490 10 0 59385 28800.00000 0 -17950437.798 11026555.190 14381700.011 10 0 59385 29700.00000 0 -19473718.952 11566378.945 11728381.318 10 0 59385 30600.00000 0 -20630899.405 12107106.084 8847181.339 10 0 59385 31500.00000 0 -21408005.533 12591451.405 5794044.831 10 0 59385 32400.00000 0 -21804360.851 12962021.579 2628284.641 10 0 59385 33300.00000 0 -21832446.367 13163926.726 -588572.328 10 0 59385 34200.00000 0 -21517222.838 13147300.719 -3793984.646 10 0 59385 35100.00000 0 -20894943.703 12869622.579 -6925617.579 10 0 59385 36000.00000 0 -20011509.060 12297739.626 -9922561.509 10 0 59385 36900.00000 0 -18920430.605 11409505.517 -12726522.973 10 0 59385 37800.00000 0 -17680493.967 10194962.634 -15282964.362 10 0 59385 38700.00000 0 -16353217.694 8657017.557 -17542169.487 10 0 59385 39600.00000 0 -15000216.600 6811579.974 -19460213.722 10 0 59385 40500.00000 0 -13680581.115 4687158.029 -20999819.666 10 0 59385 41400.00000 0 -12448383.215 2323926.042 -22131081.721 10 0 59385 42300.00000 0 -11350414.019 -227697.118 -22832045.655 10 0 59385 43200.00000 0 -10424247.946 -2908900.372 -23089132.324 10 0 59385 44100.00000 0 -9696714.361 -5654686.852 -22897397.727 10 0 59385 45000.00000 0 -9182840.276 -8396342.937 -22260624.821 10 0 59385 45900.00000 0 -8885307.715 -11064067.708 -21191245.701 10 0 59385 46800.00000 0 -8794447.618 -13589653.984 -19710095.944 10 0 59385 47700.00000 0 -8888769.612 -15909109.880 -17846006.084 10 0 59385 48600.00000 0 -9136004.455 -17965112.478 -15635238.240 10 0 59385 49500.00000 0 -9494614.410 -19709192.140 -13120778.792 10 0 59385 50400.00000 0 -9915707.160 -21103557.114 -10351500.882 10 0 59385 51300.00000 0 -10345271.917 -22122483.210 -7381212.991 10 0 59385 52200.00000 0 -10726642.781 -22753211.428 -4267612.061 10 0 59385 53100.00000 0 -11003084.881 -22996316.923 -1071161.713 10 0 59385 54000.00000 0 -11120393.626 -22865534.966 2146082.523 10 0 59385 54900.00000 0 -11029396.895 -22387052.206 5321677.949 10 0 59385 55800.00000 0 -10688254.137 -21598293.960 8394005.745 10 0 59385 56700.00000 0 -10064454.970 -20546259.317 11303464.706 10 0 59385 57600.00000 0 -9136432.544 -19285474.675 13993624.520 10 0 59385 58500.00000 0 -7894723.245 -17875652.108 16412316.270 10 0 59385 59400.00000 0 -6342623.324 -16379151.085 18512639.382 10 0 59385 60300.00000 0 -4496314.054 -14858349.948 20253866.014 10 0 59385 61200.00000 0 -2384449.264 -13373037.094 21602225.869 10 0 59385 62100.00000 0 -47221.286 -11977930.628 22531556.939 10 0 59385 63000.00000 0 2465057.020 -10720429.646 23023810.208 10 0 59385 63900.00000 0 5093796.466 -9638690.610 23069398.956 10 0 59385 64800.00000 0 7774326.771 -8760108.504 22667386.251 10 0 59385 65700.00000 0 10438353.067 -8100265.737 21825506.982 10 0 59385 66600.00000 0 13016572.947 -7662392.297 20560023.744 10 0 59385 67500.00000 0 15441346.577 -7437359.447 18895418.823 10 0 59385 68400.00000 0 17649309.915 -7404207.083 16863927.479 10 0 59385 69300.00000 0 19583822.952 -7531182.626 14504920.683 10 0 59385 70200.00000 0 21197151.493 -7777247.828 11864148.362 10 0 59385 71100.00000 0 22452291.665 -8093990.120 8992856.968 10 0 59385 72000.00000 0 23324360.812 -8427857.903 5946797.891 10 0 59385 72900.00000 0 23801496.453 -8722625.217 2785145.607 10 0 59385 73800.00000 0 23885225.408 -8921981.191 -430653.539 10 0 59385 74700.00000 0 23590287.397 -8972134.087 -3638079.183 10 0 59385 75600.00000 0 22943920.503 -8824318.834 -6774757.663 10 0 59385 76500.00000 0 21984638.660 -8437100.762 -9779681.163 10 0 59385 77400.00000 0 20760552.903 -7778376.832 -12594400.672 10 0 59385 78300.00000 0 19327307.534 -6826988.377 -15164168.788 10 0 59385 79200.00000 0 17745718.581 -5573875.863 -17439009.468 10 0 59385 80100.00000 0 16079214.523 -4022725.656 -19374693.362 10 0 59385 81000.00000 0 14391187.410 -2190080.375 -20933599.520 10 0 59385 81900.00000 0 12742366.007 -104907.004 -22085446.765 10 0 59385 82800.00000 0 11188321.433 2192360.001 -22807880.614 10 0 59385 83700.00000 0 9777209.800 4651261.444 -23086904.794 10 0 59385 84600.00000 0 8547846.081 7213182.425 -22917149.380 10 0 59385 85500.00000 0 7528189.275 9813570.238 -22301970.825 10 0 59386 0.00000 0 6734301.418 12384409.286 -21253382.370 10 0 59386 900.00000 0 6169823.158 14856850.526 -19791816.315 10 0 59386 1800.00000 0 5825986.075 17163886.327 -17945723.443 10 0 59386 2700.00000 0 5682161.166 19242959.619 -15751016.805 10 0 59386 3600.00000 0 5706917.860 21038399.783 -13250371.200 10 0 59386 4500.00000 0 5859548.888 22503583.526 -10492391.699 10 0 59386 5400.00000 0 6091995.275 23602731.555 -7530667.444 10 0 59386 6300.00000 0 6351089.535 24312266.544 -4422729.058 10 0 59386 7200.00000 0 6581021.612 24621676.290 -1228930.135 10 0 59386 8100.00000 0 6725922.781 24533846.711 1988725.342 10 0 59386 9000.00000 0 6732457.822 24064851.539 5167786.722 10 0 59386 9900.00000 0 6552315.492 23243208.287 8246567.861 10 0 59386 10800.00000 0 6144491.703 22108632.441 11165342.185 10 0 59386 11700.00000 0 5477268.617 20710342.700 13867498.435 10 0 59386 12600.00000 0 4529805.782 19104988.806 16300634.739 10 0 59386 13500.00000 0 3293275.738 17354288.990 18417570.154 10 0 59386 14400.00000 0 1771495.658 15522475.974 20177254.540 10 0 59386 15300.00000 0 -18972.345 13673658.160 21545559.666 10 0 59386 16200.00000 0 -2049257.533 11869205.849 22495936.903 10 0 59386 17100.00000 0 -4279136.516 10165271.026 23009929.389 10 0 59386 18000.00000 0 -6658470.360 8610543.508 23077529.170 10 0 59386 18900.00000 0 -9129064.458 7244336.294 22697372.769 10 0 59386 19800.00000 0 -11626875.316 6095079.198 21876771.375 10 0 59386 20700.00000 0 -14084473.792 5179282.992 20631574.837 10 0 59386 21600.00000 0 -16433663.724 4501016.691 18985871.574 10 0 59386 22500.00000 0 -18608148.028 4051919.408 16971529.453 10 0 59386 23400.00000 0 -20546132.018 3811745.957 14627585.668 10 0 59386 24300.00000 0 -22192755.934 3749423.059 11999496.522 10 0 59386 25200.00000 0 -23502255.318 3824571.566 9138260.814 10 0 59386 26100.00000 0 -24439758.791 3989430.396 6099433.209 10 0 59386 27000.00000 0 -24982647.673 4191100.705 2942046.369 10 0 59386 27900.00000 0 -25121420.059 4374015.041 -272537.355 10 0 59386 28800.00000 0 -24860022.548 4482526.394 -3481822.021 10 0 59386 29700.00000 0 -24215635.398 4463506.743 -6623398.268 10 0 59386 30600.00000 0 -23217919.856 4268843.976 -9636163.137 10 0 59386 31500.00000 0 -21907759.330 3857730.342 -12461514.900 10 0 59386 32400.00000 0 -20335547.489 3198644.278 -15044498.909 10 0 59386 33300.00000 0 -18559095.601 2270940.514 -17334881.472 10 0 59386 34200.00000 0 -16641247.481 1065980.030 -19288130.311 10 0 59386 35100.00000 0 -14647302.629 -412248.977 -20866282.268 10 0 59386 36000.00000 0 -12642355.960 -2147046.417 -22038681.421 10 0 59386 36900.00000 0 -10688665.853 -4109456.423 -22782573.372 10 0 59386 37800.00000 0 -8843160.630 -6259246.037 -23083544.574 10 0 59386 38700.00000 0 -7155187.435 -8546366.308 -22935798.599 10 0 59386 39600.00000 0 -5664597.099 -10912835.313 -22342264.428 10 0 59386 40500.00000 0 -4400244.114 -13294965.098 -21314535.096 10 0 59386 41400.00000 0 -3378963.318 -15625840.153 -19872638.197 10 0 59386 42300.00000 0 -2605064.831 -17837944.436 -18044642.908 10 0 59386 43200.00000 0 -2070366.931 -19865827.844 -15866111.290 10 0 59386 44100.00000 0 -1754764.030 -21648701.280 -13379404.495 10 0 59386 45000.00000 0 -1627304.485 -23132852.342 -10632857.381 10 0 59386 45900.00000 0 -1647731.545 -24273781.108 -7679837.566 10 0 59386 46800.00000 0 -1768421.342 -25037967.185 -4577707.156 10 0 59386 47700.00000 0 -1936635.165 -25404194.464 -1386707.521 10 0 59386 48600.00000 0 -2096990.061 -25364378.632 1831211.104 10 0 59386 49500.00000 0 -2194042.700 -24923863.278 5013592.301 10 0 59386 50400.00000 0 -2174876.764 -24101172.696 8098684.804 10 0 59386 51300.00000 0 -1991584.067 -22927232.279 11026638.856 10 0 59386 52200.00000 0 -1603534.244 -21444089.567 13740664.414 10 0 59386 53100.00000 0 -979336.850 -19703189.889 16188128.746 10 0 59386 54000.00000 0 -98412.734 -17763278.923 18321572.496 10 0 59386 54900.00000 0 1047891.997 -15688019.806 20099625.006 10 0 59386 55800.00000 0 2455696.900 -13543424.166 21487801.653 10 0 59386 56700.00000 0 4108509.473 -11395203.792 22459168.458 10 0 59386 57600.00000 0 5977683.148 -9306152.701 22994861.677 10 0 59386 58500.00000 0 8023393.100 -7333667.958 23084452.799 10 0 59386 59400.00000 0 10196090.574 -5527511.592 22726152.179 10 0 59386 60300.00000 0 12438376.613 -3927905.902 21926847.413 10 0 59386 61200.00000 0 14687218.497 -2564040.706 20701975.458 10 0 59386 62100.00000 0 16876417.950 -1453053.939 19075230.476 10 0 59386 63000.00000 0 18939229.445 -599527.465 17078112.299 10 0 59386 63900.00000 0 20811020.221 4481.319 14749323.431 10 0 59386 64800.00000 0 22431861.629 378873.929 12134025.348 10 0 59386 65700.00000 0 23748943.706 554435.398 9282967.654 10 0 59386 66600.00000 0 24718711.823 571294.641 6251506.399 10 0 59386 67500.00000 0 25308635.528 476985.865 3098530.174 10 0 59386 68400.00000 0 25498534.800 324193.385 -114685.244 10 0 59386 69300.00000 0 25281407.342 168275.781 -3325671.184 10 0 59386 70200.00000 0 24663721.517 64674.986 -6471985.601 10 0 59386 71100.00000 0 23665162.022 66320.958 -9492433.454 10 0 59386 72000.00000 0 22317838.630 221142.924 -12328263.312 10 0 59386 72900.00000 0 20664991.078 569793.740 -14924316.142 10 0 59386 73800.00000 0 18759244.516 1143684.879 -17230103.263 10 0 59386 74700.00000 0 16660488.963 1963416.271 -19200791.878 10 0 59386 75600.00000 0 14433471.960 3037668.420 -20798078.787 10 0 59386 76500.00000 0 12145205.496 4362604.566 -21990935.248 10 0 59386 77400.00000 0 9862295.953 5921808.943 -22756208.624 10 0 59386 78300.00000 0 7648308.646 7686764.579 -23079069.524 10 0 59386 79200.00000 0 5561276.763 9617851.342 -22953296.157 10 0 59386 80100.00000 0 3651458.224 11665823.014 -22381390.865 10 0 59386 81000.00000 0 1959433.232 13773702.140 -21374526.994 10 0 59386 81900.00000 0 514620.794 15879013.960 -19952327.460 10 0 59386 82800.00000 0 -665725.063 17916266.402 -18142479.557 10 0 59386 83700.00000 0 -1576998.983 19819572.906 -15980193.596 10 0 59386 84600.00000 0 -2227189.204 21525308.787 -13507515.875 10 0 59386 85500.00000 0 -2636287.606 22974690.309 -10772509.389 99